This is the latest recevied weather packets stored in our database for station/object KC3QLX. If no packets are shown the sender has not sent any weather packets the latest 10 day(s).
| Time | Temp. | Humidity | Pressure | Rain* | Wind** | Luminosity | Snow |
|---|---|---|---|---|---|---|---|
| 1777821425 | 10.56° C | 43% | 1013.8 hPa | 0 mm | - | 209 W/m² | - |
| 1777821121 | 10.56° C | 44% | 1013.6 hPa | 0 mm | - | 918 W/m² | - |
| 1777820818 | 11.11° C | 44% | 1013.9 hPa | 0 mm | - | 986 W/m² | - |
| 1777820514 | 10.56° C | 42% | 1013.8 hPa | 0 mm | - | 958 W/m² | - |
| 1777820211 | 10.56° C | 49% | 1013.8 hPa | 0 mm | - | 867 W/m² | - |
| 1777819909 | 10° C | 45% | 1013.9 hPa | 0 mm | - | 817 W/m² | - |
| 1777819606 | 9.44° C | 52% | 1013.9 hPa | 0 mm | - | 802 W/m² | - |
| 1777819304 | 9.44° C | 49% | 1014.3 hPa | 0 mm | - | 866 W/m² | - |
| 1777819000 | 9.44° C | 48% | 1014.1 hPa | 0 mm | - | 808 W/m² | - |
| 1777818697 | 8.89° C | 51% | 1014 hPa | 0 mm | - | 776 W/m² | - |
| 1777818394 | 8.33° C | 54% | 1014.3 hPa | 0 mm | - | 812 W/m² | - |
| 1777818091 | 8.89° C | 54% | 1014.1 hPa | 0 mm | - | 134 W/m² | - |
| 1777817787 | 8.33° C | 55% | 1014.3 hPa | 0 mm | - | 820 W/m² | - |
| 1777817485 | 7.78° C | 57% | 1014.4 hPa | 0 mm | - | 730 W/m² | - |
| 1777817181 | 7.78° C | 56% | 1014.1 hPa | 0 mm | - | 163 W/m² | - |
| 1777816879 | 7.22° C | 60% | 1014.1 hPa | 0 mm | - | 132 W/m² | - |
| 1777816575 | 7.78° C | 60% | 1014.3 hPa | 0 mm | - | 744 W/m² | - |
| 1777816272 | 7.78° C | 60% | 1014.5 hPa | 0 mm | - | 263 W/m² | - |
| 1777815970 | 7.22° C | 60% | 1014.3 hPa | 0 mm | - | 666 W/m² | - |
| 1777815667 | 7.78° C | 62% | 1014.4 hPa | 0 mm | - | 93 W/m² | - |
| 1777815364 | 7.78° C | 62% | 1014.3 hPa | 0 mm | - | 663 W/m² | - |
| 1777815061 | 7.22° C | 61% | 1014.4 hPa | 0 mm | - | 620 W/m² | - |
| 1777814757 | 6.67° C | 64% | 1014.6 hPa | 0 mm | - | 391 W/m² | - |
| 1777814454 | 6.67° C | 64% | 1014.4 hPa | 0 mm | - | 280 W/m² | - |
| 1777814151 | 6.11° C | 65% | 1014.7 hPa | 0 mm | - | 122 W/m² | - |
* Rain latest hour (hover to see other rain measurements)
** Current wind speed in m/s (hover to see current wind gust speed)